Springfield, MO

5:36 AM CST on November 22, 2019 (GMT -0600)
Springfield-Branson Regional

Weather History for KSGF - October, 2019

Change the Weather History Date:

Sunday, October 13, 2019

  Actual Average Record
Temperature  
Mean Temperature 55 °F 59 °F  
Max Temperature 72 °F 70 °F 88 °F (2017)
Min Temperature 38 °F 47 °F 32 °F (1909)
Degree Days  
Heating Degree Days 10 7  
Month to date heating degree days 81 77  
Since 1 July heating degree days 81 132  
Cooling Degree Days 0 1  
Month to date cooling degree days 37 19  
Year to date cooling degree days 1687 1378  
Growing Degree Days 4 (Base 50)    
Moisture  
Dew Point 36 °F    
Average Humidity 57    
Maximum Humidity 85    
Minimum Humidity 28    
Precipitation  
Precipitation 0.00 in 0.11 in 2.31 in (2012)
Month to date precipitation 4.04 1.51  
Year to date precipitation 45.73 36.23  
Snow  
Snow 0.00 in - - ()
Month to date snowfall 0.0  
Since 1 July snowfall 0.0  
Since 1 September snowfall 0.0  
Snow Depth 0.00 in    
Sea Level Pressure  
Sea Level Pressure 29.99 in    
Wind  
Wind Speed 8 mph (SSW)    
Max Wind Speed 18 mph    
Max Gust Speed 23 mph    
Visibility 10 miles    
Events      
T = Trace of Precipitation, MM = Missing Value Source: NWS Daily Summary

Daily Weather History Graph

Daily Weather History Graph

Search for Another Location

Airport or City:

Astronomy

Oct. 13, 2019 Rise Set
Actual Time 7:19 AM CDT 6:39 PM CDT
Civil Twilight 6:53 AM CDT 7:05 PM CDT
Nautical Twilight 6:23 AM CDT 7:35 PM CDT
Astronomical Twilight 5:52 AM CDT 8:06 PM CDT
Moon 7:01 PM CDT (10/13) 6:56 AM CDT (10/13)
Length of Visible Light 12h 12m
Length of Day
11h 20m
Full, 100% of the Moon is Illuminated
Oct 13
Full
Oct 13
Full
Oct 21
Last Quarter
Oct 27
New
Nov 4
First Quarter

Hourly Weather History & Observations

Time (CDT) Temp. Windchill Dew Point Humidity Pressure Visibility Wind Dir Wind Speed Gust Speed Precip Events Conditions
12:52 AM 43.0 °F 38.8 °F 34.0 °F 71% 29.99 in 10.0 mi South 6.9 mph - N/A   Clear
1:52 AM 41.0 °F 35.2 °F 33.1 °F 73% 29.99 in 10.0 mi South 9.2 mph - N/A   Clear
2:52 AM 41.0 °F 35.8 °F 33.1 °F 73% 29.99 in 10.0 mi South 8.1 mph - N/A   Clear
3:52 AM 41.0 °F 35.8 °F 34.0 °F 76% 29.99 in 10.0 mi South 8.1 mph - N/A   Clear
4:52 AM 39.9 °F 34.5 °F 34.0 °F 79% 29.98 in 10.0 mi South 8.1 mph - N/A   Clear
5:52 AM 39.0 °F 33.4 °F 34.0 °F 82% 29.99 in 10.0 mi South 8.1 mph - N/A   Clear
6:52 AM 37.9 °F 33.5 °F 33.1 °F 83% 30.01 in 10.0 mi South 5.8 mph - N/A   Clear
7:52 AM 39.9 °F 34.5 °F 35.1 °F 83% 30.01 in 10.0 mi South 8.1 mph - N/A   Clear
8:52 AM 46.0 °F 41.0 °F 36.0 °F 68% 30.02 in 10.0 mi South 10.4 mph - N/A   Clear
9:52 AM 53.1 °F - 36.0 °F 52% 30.01 in 10.0 mi SW 11.5 mph - N/A   Clear
10:52 AM 62.1 °F - 35.1 °F 37% 30.01 in 10.0 mi WSW 12.7 mph - N/A   Clear
11:52 AM 64.9 °F - 36.0 °F 34% 30.01 in 10.0 mi SW 10.4 mph - N/A   Clear
12:52 PM 66.9 °F - 33.1 °F 28% 30.00 in 10.0 mi West 11.5 mph - N/A   Clear
1:52 PM 69.1 °F - 36.0 °F 30% 29.98 in 10.0 mi WSW 11.5 mph - N/A   Clear
2:52 PM 70.0 °F - 37.9 °F 31% 29.95 in 10.0 mi SW 12.7 mph - N/A   Clear
3:52 PM 71.1 °F - 37.0 °F 29% 29.95 in 10.0 mi SW 15.0 mph - N/A   Clear
4:52 PM 70.0 °F - 37.0 °F 30% 29.95 in 10.0 mi WSW 11.5 mph - N/A   Clear
5:52 PM 66.9 °F - 39.0 °F 36% 29.96 in 10.0 mi SW 6.9 mph - N/A   Clear
6:52 PM 57.9 °F - 39.9 °F 51% 29.97 in 10.0 mi WSW 5.8 mph - N/A   Clear
7:52 PM 51.1 °F - 42.1 °F 71% 30.00 in 10.0 mi SSW 3.5 mph - N/A   Clear
8:52 PM 48.0 °F - 39.9 °F 74% 30.01 in 10.0 mi South 3.5 mph - N/A   Clear
9:52 PM 50.0 °F - 39.0 °F 66% 30.01 in 10.0 mi SSW 4.6 mph - N/A   Clear
10:52 PM 46.0 °F 43.9 °F 39.0 °F 76% 30.02 in 10.0 mi South 4.6 mph - N/A   Clear
11:52 PM 46.9 °F - 39.0 °F 74% 30.03 in 10.0 mi South 3.5 mph - N/A   Clear